Time,TemperatureF,DewpointF,PressureIn,WindDirection,WindDirectionDegrees,WindSpeedMPH,WindSpeedGustMPH,Humidity,HourlyPrecipIn,Conditions,Clouds,dailyrainin,SolarRadiationWatts/m^2,SoftwareType,DateUTC
2013-01-12 00:13:00,36.4,15.0,29.85,WSW,253,0.0,0.0,42,0.00,,,0.00,0,weatherlink.com 1.10,2013-01-12 07:13:00,
2013-01-12 00:28:00,37.0,14.0,29.85,WSW,253,0.0,0.0,39,0.00,,,0.00,0,weatherlink.com 1.10,2013-01-12 07:28:00,
2013-01-12 00:58:00,36.3,14.0,29.84,WSW,253,0.0,0.0,40,0.00,,,0.00,0,weatherlink.com 1.10,2013-01-12 07:58:00,
2013-01-12 01:13:00,36.2,13.0,29.84,WSW,253,0.0,0.0,39,0.00,,,0.00,0,weatherlink.com 1.10,2013-01-12 08:13:00,
2013-01-12 01:28:00,35.7,14.0,29.84,WSW,253,0.0,0.0,41,0.00,,,0.00,0,weatherlink.com 1.10,2013-01-12 08:28:00,
2013-01-12 01:43:00,35.6,14.0,29.83,WSW,253,0.0,0.0,41,0.00,,,0.00,0,weatherlink.com 1.10,2013-01-12 08:43:00,
2013-01-12 01:58:00,35.8,13.0,29.83,WSW,253,0.0,1.0,39,0.00,,,0.00,0,weatherlink.com 1.10,2013-01-12 08:58:00,
2013-01-12 02:13:00,36.0,12.0,29.83,WSW,253,0.0,1.0,38,0.00,,,0.00,0,weatherlink.com 1.10,2013-01-12 09:13:00,
2013-01-12 02:28:00,35.7,13.0,29.83,WSW,253,0.0,1.0,39,0.00,,,0.00,0,weatherlink.com 1.10,2013-01-12 09:28:00,
2013-01-12 02:43:00,35.4,13.0,29.83,WSW,253,0.0,1.0,39,0.00,,,0.00,0,weatherlink.com 1.10,2013-01-12 09:43:00,
2013-01-12 02:58:00,35.0,13.0,29.84,WSW,253,0.0,0.0,40,0.00,,,0.00,0,weatherlink.com 1.10,2013-01-12 09:58:00,
2013-01-12 03:13:00,34.4,13.0,29.84,WSW,253,0.0,0.0,42,0.00,,,0.00,0,weatherlink.com 1.10,2013-01-12 10:13:00,
2013-01-12 03:28:00,33.7,14.0,29.85,WSW,253,0.0,0.0,44,0.00,,,0.00,0,weatherlink.com 1.10,2013-01-12 10:28:00,
2013-01-12 03:43:00,33.7,14.0,29.85,WSW,253,0.0,1.0,44,0.00,,,0.00,0,weatherlink.com 1.10,2013-01-12 10:43:00,
2013-01-12 03:58:00,33.2,13.0,29.84,WSW,253,0.0,0.0,44,0.00,,,0.00,0,weatherlink.com 1.10,2013-01-12 10:58:00,
2013-01-12 04:13:00,32.4,14.0,29.85,WSW,253,0.0,0.0,47,0.00,,,0.00,0,weatherlink.com 1.10,2013-01-12 11:13:00,
2013-01-12 04:28:00,31.7,14.0,29.85,WSW,253,0.0,0.0,48,0.00,,,0.00,0,weatherlink.com 1.10,2013-01-12 11:28:00,
2013-01-12 04:44:00,31.0,14.0,29.85,WSW,253,0.0,0.0,50,0.00,,,0.00,0,weatherlink.com 1.10,2013-01-12 11:44:00,
2013-01-12 04:59:00,30.9,14.0,29.86,WSW,253,0.0,0.0,49,0.00,,,0.00,0,weatherlink.com 1.10,2013-01-12 11:59:00,
2013-01-12 05:14:00,30.9,12.0,29.87,WSW,253,0.0,0.0,46,0.00,,,0.00,0,weatherlink.com 1.10,2013-01-12 12:14:00,
2013-01-12 05:29:00,31.5,12.0,29.87,WSW,253,0.0,0.0,44,0.00,,,0.00,0,weatherlink.com 1.10,2013-01-12 12:29:00,
2013-01-12 05:44:00,31.7,10.0,29.88,WSW,253,0.0,0.0,41,0.00,,,0.00,0,weatherlink.com 1.10,2013-01-12 12:44:00,
2013-01-12 05:59:00,32.2,10.0,29.88,WSW,253,0.0,0.0,40,0.00,,,0.00,0,weatherlink.com 1.10,2013-01-12 12:59:00,
2013-01-12 06:14:00,32.9,10.0,29.89,WSW,253,0.0,5.0,39,0.00,,,0.00,0,weatherlink.com 1.10,2013-01-12 13:14:00,
2013-01-12 06:29:00,33.1,11.0,29.91,WSW,253,0.0,0.0,40,0.00,,,0.00,0,weatherlink.com 1.10,2013-01-12 13:29:00,
2013-01-12 06:44:00,33.2,13.0,29.91,WSW,253,0.0,0.0,43,0.00,,,0.00,0,weatherlink.com 1.10,2013-01-12 13:44:00,
2013-01-12 06:59:00,32.9,13.0,29.91,WSW,253,0.0,0.0,44,0.00,,,0.00,0,weatherlink.com 1.10,2013-01-12 13:59:00,
2013-01-12 07:14:00,32.5,13.0,29.93,WSW,253,0.0,0.0,45,0.00,,,0.00,7,weatherlink.com 1.10,2013-01-12 14:14:00,
2013-01-12 07:29:00,32.4,14.0,29.93,WSW,253,0.0,0.0,46,0.00,,,0.00,12,weatherlink.com 1.10,2013-01-12 14:29:00,
2013-01-12 07:44:00,32.3,13.0,29.96,WSW,253,0.0,0.0,46,0.00,,,0.00,12,weatherlink.com 1.10,2013-01-12 14:44:00,
2013-01-12 07:59:00,32.0,12.0,29.96,WSW,253,0.0,0.0,43,0.00,,,0.00,58,weatherlink.com 1.10,2013-01-12 14:59:00,
2013-01-12 08:14:00,32.9,11.0,29.97,WSW,253,0.0,0.0,40,0.00,,,0.00,53,weatherlink.com 1.10,2013-01-12 15:14:00,
2013-01-12 08:29:00,34.2,11.0,29.98,WSW,253,0.0,5.0,38,0.00,,,0.00,197,weatherlink.com 1.10,2013-01-12 15:29:00,
2013-01-12 08:44:00,34.9,11.0,29.98,WSW,252,3.0,7.0,37,0.00,,,0.00,251,weatherlink.com 1.10,2013-01-12 15:44:00,
2013-01-12 08:59:00,36.0,11.0,29.98,WSW,252,0.0,6.0,36,0.00,,,0.00,301,weatherlink.com 1.10,2013-01-12 15:59:00,
2013-01-12 09:14:00,36.8,12.0,29.99,WSW,252,0.0,6.0,36,0.00,,,0.00,339,weatherlink.com 1.10,2013-01-12 16:14:00,
2013-01-12 09:29:00,36.7,12.0,29.99,WSW,249,4.0,7.0,36,0.00,,,0.00,378,weatherlink.com 1.10,2013-01-12 16:29:00,
2013-01-12 09:44:00,37.4,11.0,29.98,WSW,245,7.0,8.0,33,0.00,,,0.00,417,weatherlink.com 1.10,2013-01-12 16:44:00,
2013-01-12 10:00:00,38.5,11.0,29.98,WSW,244,0.0,7.0,32,0.00,,,0.00,450,weatherlink.com 1.10,2013-01-12 17:00:00,
2013-01-12 10:15:00,39.2,11.0,29.97,WSW,242,0.0,9.0,32,0.00,,,0.00,483,weatherlink.com 1.10,2013-01-12 17:15:00,
2013-01-12 10:30:00,39.5,12.0,29.97,WSW,240,8.0,10.0,32,0.00,,,0.00,510,weatherlink.com 1.10,2013-01-12 17:30:00,
2013-01-12 10:45:00,40.3,12.0,29.96,WSW,238,0.0,11.0,32,0.00,,,0.00,534,weatherlink.com 1.10,2013-01-12 17:45:00,
2013-01-12 11:00:00,41.1,12.0,29.95,SW,234,4.0,13.0,31,0.00,,,0.00,554,weatherlink.com 1.10,2013-01-12 18:00:00,
2013-01-12 11:15:00,41.9,13.0,29.95,West,280,0.0,13.0,31,0.00,,,0.00,573,weatherlink.com 1.10,2013-01-12 18:15:00,
2013-01-12 11:30:00,42.1,13.0,29.94,WSW,239,2.0,16.0,30,0.00,,,0.00,587,weatherlink.com 1.10,2013-01-12 18:30:00,
2013-01-12 11:45:00,41.8,12.0,29.93,West,263,10.0,21.0,30,0.00,,,0.00,596,weatherlink.com 1.10,2013-01-12 18:45:00,
2013-01-12 12:00:00,42.3,13.0,29.94,WNW,290,1.0,18.0,30,0.00,,,0.00,599,weatherlink.com 1.10,2013-01-12 19:00:00,
2013-01-12 12:15:00,43.7,13.0,29.94,WSW,252,4.0,13.0,29,0.00,,,0.00,599,weatherlink.com 1.10,2013-01-12 19:15:00,
2013-01-12 12:30:00,43.3,11.0,29.93,WSW,242,9.0,17.0,27,0.00,,,0.00,596,weatherlink.com 1.10,2013-01-12 19:30:00,
2013-01-12 12:45:00,43.5,11.0,29.93,WSW,257,1.0,15.0,26,0.00,,,0.00,598,weatherlink.com 1.10,2013-01-12 19:45:00,
2013-01-12 13:00:00,43.6,10.0,29.92,West,277,4.0,15.0,25,0.00,,,0.00,589,weatherlink.com 1.10,2013-01-12 20:00:00,
2013-01-12 13:15:00,43.8,11.0,29.92,SW,236,1.0,17.0,26,0.00,,,0.00,575,weatherlink.com 1.10,2013-01-12 20:15:00,
2013-01-12 13:30:00,43.5,11.0,29.91,WSW,238,1.0,22.0,26,0.00,,,0.00,555,weatherlink.com 1.10,2013-01-12 20:30:00,
2013-01-12 13:45:00,43.5,11.0,29.92,SW,229,13.0,20.0,26,0.00,,,0.00,540,weatherlink.com 1.10,2013-01-12 20:45:00,
2013-01-12 14:00:00,43.8,11.0,29.92,WSW,244,5.0,15.0,26,0.00,,,0.00,510,weatherlink.com 1.10,2013-01-12 21:00:00,
2013-01-12 14:15:00,44.3,10.0,29.91,WSW,248,7.0,17.0,25,0.00,,,0.00,482,weatherlink.com 1.10,2013-01-12 21:15:00,
2013-01-12 14:30:00,44.0,10.0,29.91,WNW,290,10.0,15.0,25,0.00,,,0.00,454,weatherlink.com 1.10,2013-01-12 21:30:00,
2013-01-12 14:45:00,44.3,10.0,29.92,WSW,248,5.0,16.0,25,0.00,,,0.00,415,weatherlink.com 1.10,2013-01-12 21:45:00,
2013-01-12 15:00:00,43.8,10.0,29.92,WNW,291,1.0,15.0,25,0.00,,,0.00,40,weatherlink.com 1.10,2013-01-12 22:00:00,
2013-01-12 15:15:00,43.8,11.0,29.91,WNW,287,9.0,11.0,26,0.00,,,0.00,185,weatherlink.com 1.10,2013-01-12 22:15:00,
2013-01-12 15:33:00,44.3,11.0,29.91,SW,228,8.0,12.0,26,0.00,,,0.00,302,weatherlink.com 1.10,2013-01-12 22:33:00,
2013-01-12 15:45:00,43.7,10.0,29.91,WNW,284,1.0,11.0,25,0.00,,,0.00,51,weatherlink.com 1.10,2013-01-12 22:45:00,
2013-01-12 16:00:00,43.7,11.0,29.92,WNW,286,0.0,11.0,26,0.00,,,0.00,214,weatherlink.com 1.10,2013-01-12 23:00:00,
2013-01-12 16:15:00,44.0,11.0,29.92,West,259,6.0,10.0,26,0.00,,,0.00,144,weatherlink.com 1.10,2013-01-12 23:15:00,
2013-01-12 16:30:00,43.1,11.0,29.92,WNW,286,0.0,11.0,27,0.00,,,0.00,39,weatherlink.com 1.10,2013-01-12 23:30:00,
2013-01-12 16:45:00,41.1,11.0,29.94,WNW,292,3.0,17.0,29,0.00,,,0.00,28,weatherlink.com 1.10,2013-01-12 23:45:00,
2013-01-12 17:00:00,40.0,12.0,29.95,West,280,0.0,13.0,32,0.00,,,0.00,21,weatherlink.com 1.10,2013-01-13 00:00:00,
2013-01-12 17:15:00,39.7,12.0,29.96,WNW,282,3.0,13.0,32,0.00,,,0.00,5,weatherlink.com 1.10,2013-01-13 00:15:00,
2013-01-12 17:30:00,39.2,12.0,29.97,West,281,5.0,12.0,33,0.00,,,0.00,0,weatherlink.com 1.10,2013-01-13 00:30:00,
2013-01-12 17:45:00,38.6,12.0,29.97,West,272,6.0,14.0,33,0.00,,,0.00,0,weatherlink.com 1.10,2013-01-13 00:45:00,
2013-01-12 18:00:00,38.3,11.0,29.98,WNW,286,0.0,8.0,32,0.00,,,0.00,0,weatherlink.com 1.10,2013-01-13 01:00:00,
2013-01-12 18:15:00,38.1,11.0,29.99,WNW,293,2.0,13.0,32,0.00,,,0.00,0,weatherlink.com 1.10,2013-01-13 01:15:00,
2013-01-12 18:30:00,37.9,11.0,30.00,WNW,285,0.0,10.0,33,0.00,,,0.00,0,weatherlink.com 1.10,2013-01-13 01:30:00,
2013-01-12 18:45:00,37.4,11.0,30.01,WNW,285,10.0,10.0,33,0.00,,,0.00,0,weatherlink.com 1.10,2013-01-13 01:45:00,
2013-01-12 19:00:00,37.2,10.0,30.01,WNW,288,5.0,16.0,33,0.00,,,0.00,0,weatherlink.com 1.10,2013-01-13 02:00:00,
2013-01-12 19:30:00,36.4,10.0,30.02,WNW,286,0.0,12.0,33,0.00,,,0.00,0,weatherlink.com 1.10,2013-01-13 02:30:00,
2013-01-12 19:45:00,35.9,9.0,30.03,WNW,290,0.0,7.0,32,0.00,,,0.00,0,weatherlink.com 1.10,2013-01-13 02:45:00,
2013-01-12 20:01:00,35.5,8.0,30.03,WNW,292,1.0,7.0,32,0.00,,,0.00,0,weatherlink.com 1.10,2013-01-13 03:01:00,
2013-01-12 20:16:00,35.3,8.0,30.04,WNW,292,0.0,5.0,32,0.00,,,0.00,0,weatherlink.com 1.10,2013-01-13 03:16:00,
2013-01-12 20:31:00,35.0,8.0,30.04,WNW,295,0.0,7.0,33,0.00,,,0.00,0,weatherlink.com 1.10,2013-01-13 03:31:00,
2013-01-12 20:46:00,34.8,8.0,30.04,WNW,298,0.0,6.0,33,0.00,,,0.00,0,weatherlink.com 1.10,2013-01-13 03:46:00,
2013-01-12 21:01:00,35.1,6.0,30.04,WNW,294,1.0,14.0,30,0.00,,,0.00,0,weatherlink.com 1.10,2013-01-13 04:01:00,
2013-01-12 21:16:00,35.2,7.0,30.04,WNW,295,1.0,10.0,30,0.00,,,0.00,0,weatherlink.com 1.10,2013-01-13 04:16:00,
2013-01-12 21:31:00,35.0,6.0,30.05,WNW,282,2.0,17.0,30,0.00,,,0.00,0,weatherlink.com 1.10,2013-01-13 04:31:00,
2013-01-12 21:46:00,34.4,6.0,30.06,WNW,300,0.0,12.0,30,0.00,,,0.00,0,weatherlink.com 1.10,2013-01-13 04:46:00,
2013-01-12 22:16:00,34.2,6.0,30.08,NW,310,7.0,8.0,30,0.00,,,0.00,0,weatherlink.com 1.10,2013-01-13 05:16:00,
2013-01-12 22:31:00,33.8,5.0,30.09,NW,313,0.0,7.0,30,0.00,,,0.00,0,weatherlink.com 1.10,2013-01-13 05:31:00,
2013-01-12 22:46:00,33.4,5.0,30.10,NW,314,1.0,3.0,30,0.00,,,0.00,0,weatherlink.com 1.10,2013-01-13 05:46:00,
2013-01-12 23:01:00,32.7,5.0,30.10,NW,314,0.0,1.0,31,0.00,,,0.00,0,weatherlink.com 1.10,2013-01-13 06:01:00,
2013-01-12 23:16:00,31.7,6.0,30.11,NW,315,0.0,1.0,33,0.00,,,0.00,0,weatherlink.com 1.10,2013-01-13 06:16:00,
2013-01-12 23:31:00,31.7,6.0,30.11,NW,315,0.0,6.0,33,0.00,,,0.00,0,weatherlink.com 1.10,2013-01-13 06:31:00,
2013-01-12 23:46:00,31.6,5.0,30.11,NW,323,0.0,6.0,33,0.00,,,0.00,0,weatherlink.com 1.10,2013-01-13 06:46:00,